Location: Dumpton Point
(51.3500°N, 1.4433°E)
Time: 09:36:50
(UTC+00:00)

Altair - All Passes

Search period start: 30 September 2022 00:00
Search period end: 10 October 2022 00:00
Orbit: 1501 x 1682 km, 47.2° (Epoch: 29 September)

Date Brightness Start Highest point End Pass type
(mag) Time Alt. Az. Time Alt. Az. Time Alt. Az.
30 Sep - 03:49:33 10° SSE 03:55:37 19° SE 04:01:46 10° E visible
30 Sep - 05:49:14 10° SW 05:58:25 47° SSE 06:07:53 10° E daylight
30 Sep - 07:52:36 10° WSW 08:02:29 70° S 08:12:35 10° E daylight
30 Sep - 09:57:02 10° W 10:06:56 63° SSW 10:16:53 10° ESE daylight
30 Sep - 12:01:53 10° W 12:10:36 34° SW 12:19:16 10° SSE daylight
01 Oct - 03:25:05 10° SSE 03:30:36 17° SE 03:36:12 10° E visible
01 Oct - 05:24:14 10° SW 05:33:18 45° SSE 05:42:38 10° E visible
01 Oct - 07:27:27 10° WSW 07:37:18 69° S 07:47:22 10° E daylight
01 Oct - 09:31:50 10° W 09:41:45 64° SSW 09:51:44 10° ESE daylight
01 Oct - 11:36:37 10° W 11:45:30 36° SW 11:54:21 10° SSE daylight
01 Oct - 13:45:26 10° WSW 13:47:52 11° WSW 13:50:18 10° SW daylight
02 Oct - 03:00:44 10° SSE 03:05:36 15° SE 03:10:32 10° E visible
02 Oct - 04:59:16 10° SSW 05:08:11 42° SE 05:17:23 10° E visible
02 Oct - 07:02:18 10° WSW 07:12:06 68° S 07:22:09 10° E daylight
02 Oct - 09:06:39 10° W 09:16:33 66° SSW 09:26:34 10° ESE daylight
02 Oct - 11:11:22 10° W 11:20:23 39° SW 11:29:24 10° SSE daylight
02 Oct - 13:19:08 10° W 13:22:53 13° WSW 13:26:37 10° SW daylight
03 Oct - 02:36:32 10° SSE 02:40:37 13° ESE 02:44:43 10° E visible
03 Oct - 04:34:18 10° SSW 04:43:05 40° SE 04:52:08 10° E visible
03 Oct - 06:37:10 10° WSW 06:46:55 67° SSE 06:56:56 10° E daylight
03 Oct - 08:41:28 10° W 08:51:22 67° SSW 09:01:24 10° ESE daylight
03 Oct - 10:46:09 10° W 10:55:17 41° SW 11:04:26 10° SSE daylight
03 Oct - 12:53:13 10° W 12:57:53 14° SW 13:02:31 10° SSW daylight
04 Oct - 02:12:38 10° SE 02:15:38 12° ESE 02:18:39 10° ESE visible
04 Oct - 04:09:23 10° SSW 04:17:59 38° SE 04:26:52 10° E visible
04 Oct - 06:12:02 10° WSW 06:21:44 66° SSE 06:31:43 10° E daylight
04 Oct - 08:16:17 10° W 08:26:10 68° S 08:36:14 10° ESE daylight
04 Oct - 10:20:54 10° W 10:30:09 43° SSW 10:39:27 10° SSE daylight
04 Oct - 12:27:31 10° W 12:32:52 16° SW 12:38:13 10° SSW daylight
05 Oct - 01:49:45 10° SE 01:50:40 10° ESE 01:51:35 10° ESE visible
05 Oct - 03:44:29 10° SSW 03:52:54 35° SE 04:01:35 10° E visible
05 Oct - 05:46:55 10° WSW 05:56:33 64° SSE 06:06:29 10° E daylight
05 Oct - 07:51:06 10° W 08:00:58 69° S 08:11:03 10° ESE daylight
05 Oct - 09:55:41 10° W 10:05:02 45° SSW 10:14:26 10° SE daylight
05 Oct - 12:01:55 10° W 12:07:51 18° SW 12:13:47 10° SSW daylight
06 Oct - 03:19:36 10° SSW 03:27:49 33° SE 03:36:18 10° E visible
06 Oct - 05:21:49 10° WSW 05:31:23 62° SSE 05:41:16 10° E visible
06 Oct - 07:25:56 10° W 07:35:46 70° S 07:45:51 10° ESE daylight
06 Oct - 09:30:29 10° W 09:39:53 47° SSW 09:49:23 10° SE daylight
06 Oct - 11:36:24 10° W 11:42:49 19° SW 11:49:15 10° S daylight
07 Oct - 02:54:45 10° SSW 03:02:45 31° SE 03:10:59 10° E visible
07 Oct - 04:56:43 10° WSW 05:06:13 61° SSE 05:16:03 10° E visible
07 Oct - 07:00:45 10° W 07:10:34 71° S 07:20:39 10° ESE daylight
07 Oct - 09:05:16 10° W 09:14:45 49° SSW 09:24:20 10° SE daylight
07 Oct - 11:10:57 10° W 11:17:47 21° SW 11:24:39 10° S daylight
08 Oct - 02:29:56 10° S 02:37:42 29° SE 02:45:40 10° E visible
08 Oct - 04:31:38 10° SW 04:41:03 59° SSE 04:50:49 10° E visible
08 Oct - 06:35:35 10° W 06:45:23 71° S 06:55:27 10° ESE daylight
08 Oct - 08:40:05 10° W 08:49:36 52° SSW 08:59:15 10° SE daylight
08 Oct - 10:45:32 10° W 10:52:44 23° SW 10:59:58 10° S daylight
09 Oct - 02:05:10 10° S 02:12:39 27° SE 02:20:20 10° E visible
09 Oct - 04:06:34 10° SW 04:15:54 57° SSE 04:25:35 10° E visible
09 Oct - 06:10:26 10° W 06:20:11 71° S 06:30:14 10° E daylight
09 Oct - 08:14:53 10° W 08:24:26 54° SSW 08:34:10 10° SE daylight
09 Oct - 10:20:10 10° W 10:27:40 25° SW 10:35:15 10° S daylight
